This demonstration page uses our WeatherBlox Daily Observations layout. Learn more.

Left ArrowRight Arrow

Hourly Observations for May 12, 2015

Temp ( °F °C ) Dew Point ( °F °C ) Humidity (%) Winds ( mph kmh ) Pressure ( in mb ) Visibility ( mi km ) Precip ( " mm )
12:58 am 00:58 Clear 43 6.3 37 2.5 77 77 W 6 9 30.16 1021 10 16 0.00 0.00
1:58 am 01:58 Clear 43 6 36 2 76 76 WNW 5 7 30.16 1022 10 16 0.00 0.00
2:58 am 02:58 Clear 39 4 36 2 87 87 W 5 7 30.19 1022 10 16 0.00 0.00
3:58 am 03:58 Clear 40 4.4 35 1.8 83 83 NW 6 9 30.19 1022 10 16 0.00 0.00
4:58 am 04:58 Clear 36 2.3 34 1.2 93 93 Calm 30.22 1023 10 16 0.00 0.00
5:58 am 05:58 Clear 36 2.2 35 1.6 96 96 W 5 7 30.23 1024 10 16 0.00 0.00
6:58 am 06:58 Sunny 39 3.7 36 2 89 89 WSW 3 6 30.26 1025 10 16 0.00 0.00
7:58 am 07:58 Sunny 44 6.6 38 3.3 80 80 W 5 7 30.28 1026 10 16 0.00 0.00
8:58 am 08:58 Sunny 48 9.1 39 3.7 69 69 NW 6 9 30.30 1026 10 16 0.00 0.00
9:58 am 09:58 Sunny 52 11.2 40 4.5 64 64 W 3 6 30.31 1026 10 16 0.00 0.00
10:58 am 10:58 Sunny 57 13.8 41 5.1 56 56 ESE 2 4 30.32 1027 10 16 0.00 0.00
11:58 am 11:58 Sunny 59 14.8 40 4.6 51 51 S 3 6 30.33 1027 10 16 0.00 0.00
12:58 pm 12:58 Sunny 62 16.6 39 4.1 44 44 S 5 7 30.32 1027 10 16 0.00 0.00
1:58 pm 13:58 Mostly Sunny 65 18.2 40 4.2 40 40 VRB 2 4 30.31 1026 10 16 0.00 0.00
2:58 pm 14:58 Sunny 65 18.6 40 4.5 40 40 WSW 3 6 30.29 1026 10 16 0.00 0.00
3:58 pm 15:58 Sunny 67 19.6 40 4.5 37 37 VRB 2 4 30.27 1025 10 16 0.00 0.00
4:58 pm 16:58 Sunny 68 20.1 41 4.8 37 37 ESE 13 20 30.24 1024 10 16 0.00 0.00
5:58 pm 17:58 Sunny 68 19.8 40 4.2 36 36 ESE 8 13 30.23 1024 10 16 0.00 0.00
6:58 pm 18:58 Sunny 67 19.4 40 4.3 37 37 SSE 13 20 30.22 1023 10 16 0.00 0.00
7:58 pm 19:58 Sunny 64 17.6 41 5.1 44 44 ESE 9 15 30.21 1023 10 16 0.00 0.00
8:58 pm 20:58 Clear 57 14.1 42 5.5 56 56 E 9 15 30.22 1023 10 16 0.00 0.00
9:58 pm 21:58 Clear 56 13.4 41 4.9 57 57 ESE 9 15 30.23 1024 10 16 0.00 0.00
10:58 pm 22:58 Clear 54 12.2 41 5 62 62 ESE 7 11 30.23 1024 10 16 0.00 0.00
11:58 pm 23:58 Clear 53 11.7 42 5.5 66 66 ESE 7 11 30.25 1024 10 16 0.00 0.00

Powered by AerisWeather